Zurück zum Katalog

FENGYUN 1C DEB

AktivSSO
NORAD 31695·DEBRIS·🇨🇳 China

Gestartet May 10, 1999 von Taiyuan Satellite Launch Center

Loading…

Nächste Überflüge (nächste 24 Stunden)

TLE

AktuellSource: Space-Track

Epoche: Sep 14, 2026, 11:33 UTC

1 31695U 99025CDD 26257.48165297  .00006455  00000-0  70519-3 0  9998
2 31695  98.2559 353.2076 0161826  66.8671 294.9500 14.79081863700416

Verfolge FENGYUN 1C DEB in Echtzeit mit AllMySat

Download on the App Store